Weather in Obilny

Russia / Orenburg Oblast     51°18′52″N   60°50′21″E
temp.,
°C
wind,
m/s
gust,
m/s
humid.,
%
clouds,
%
prec.,
mm/h
press.,
hPa
HPBL,
m
9 december, thu
thu923:00−13sse3779100 0.0 1043110
02:00−14sse4878100 0.0 1043128
05:00−14sse41076100 0.0 1043141
08:00−14sse4976100 0.0 1042130
11:00−12sse41174100 0.0 1042172
14:00−10sse4117468 0.0 1040196
17:00−12se4117592 0.0 1040141
20:00−12se5147193 0.0 1039168
10 december, fri
fri1023:00−11sse5157072 0.0 1037200
02:00−9sse61568100 0.0 1035215
05:00−8sse61568100 0.0 1033222
08:00−8sse61570100 0.0 1032245
11:00−6sse51470100 0.0 1031261
14:00−5se51373100 0.0 1029272
17:00−7se41178100 0.0 1028163
20:00−7ese41080100 0.0 1028146
11 december, sat
sat1123:00−8e3682100 0.0 102787
02:00−9e3583100 0.0 102557
05:00−9ene4682100 0.0 102486
08:00−9ne4986100 0.0 1025148
11:00−8ne71384100 0.0 1025269
14:00−8ne81483100 0.0 1025354
17:00−9ne91789100 0.0 1026456
20:00−9ne91891100 0.0 1028517
12 december, sun
sun1223:00−10ne91984100 0.0 1029509
02:00−10ne102080100 0.0 1031518
05:00−12nne919855 0.0 1034421
08:00−13nne817885 0.0 1036345
11:00−13ne716905 0.0 1038361
14:00−12nne613905 0.0 1039348
17:00−13nne512925 0.0 1041215
20:00−14nne410925 0.0 1042141
13 december, mon
mon1323:00−15nne47925 0.0 104283
02:00−15nne34905 0.0 104243
05:00−15n33855 0.0 104236
08:00−13nnw35815 0.0 104245
11:00−11n35775 0.0 104265
14:00−9nnw36785 0.0 104189
17:00−11nnw33803 0.0 104238
20:00−12nnw35783 0.0 104247